TimeCST,TemperatureF,Dew PointF,Humidity,Sea Level PressureIn,VisibilityMPH,Wind Direction,Wind SpeedMPH,Gust SpeedMPH,PrecipitationIn,Events,Conditions,WindDirDegrees,DateUTC
12:15 AM,26.6,23.0,86,30.20,-9999.0,SSW,6.9,-,N/A,,Unknown,200,2013-01-05 06:15:00
12:35 AM,26.6,23.0,86,30.20,-9999.0,SSW,8.1,-,N/A,,Unknown,200,2013-01-05 06:35:00
12:55 AM,26.6,23.0,86,30.20,-9999.0,SSW,9.2,-,N/A,,Unknown,200,2013-01-05 06:55:00
1:15 AM,28.4,24.8,86,30.19,-9999.0,SSW,8.1,-,N/A,,Unknown,200,2013-01-05 07:15:00
1:35 AM,26.6,23.0,86,30.19,-9999.0,South,6.9,-,N/A,,Unknown,190,2013-01-05 07:35:00
1:55 AM,26.6,23.0,86,30.19,-9999.0,SSW,8.1,-,N/A,,Unknown,200,2013-01-05 07:55:00
2:15 AM,26.6,23.0,86,30.19,-9999.0,SSW,6.9,-,N/A,,Unknown,200,2013-01-05 08:15:00
2:35 AM,26.6,23.0,86,30.19,-9999.0,SSW,6.9,-,N/A,,Unknown,200,2013-01-05 08:35:00
2:55 AM,24.8,23.0,93,30.19,-9999.0,SSW,6.9,-,N/A,,Unknown,200,2013-01-05 08:55:00
3:15 AM,26.6,23.0,86,30.19,-9999.0,SSW,8.1,-,N/A,,Unknown,200,2013-01-05 09:15:00
3:35 AM,24.8,23.0,93,30.18,-9999.0,SSW,8.1,-,N/A,,Unknown,200,2013-01-05 09:35:00
3:55 AM,24.8,23.0,93,30.17,-9999.0,SSW,9.2,-,N/A,,Unknown,200,2013-01-05 09:55:00
4:15 AM,26.6,24.8,93,30.17,-9999.0,SSW,8.1,-,N/A,,Unknown,200,2013-01-05 10:15:00
4:35 AM,26.6,24.8,93,30.16,-9999.0,SSW,9.2,-,N/A,,Mostly Cloudy,200,2013-01-05 10:35:00
4:55 AM,28.4,24.8,86,30.16,-9999.0,SSW,8.1,-,N/A,,Unknown,210,2013-01-05 10:55:00
5:15 AM,28.4,24.8,86,30.15,-9999.0,SSW,9.2,-,N/A,,Unknown,200,2013-01-05 11:15:00
5:55 AM,26.6,23.0,86,30.15,-9999.0,SSW,8.1,-,N/A,,Unknown,210,2013-01-05 11:55:00
6:55 AM,26.6,23.0,86,30.15,-9999.0,South,8.1,-,N/A,,Unknown,190,2013-01-05 12:55:00
7:15 AM,28.4,23.0,80,30.16,-9999.0,South,10.4,-,N/A,,Unknown,190,2013-01-05 13:15:00
7:35 AM,28.4,24.8,86,30.15,-9999.0,SSW,9.2,-,N/A,,Unknown,200,2013-01-05 13:35:00
7:55 AM,28.4,24.8,86,30.15,-9999.0,South,8.1,-,N/A,,Unknown,190,2013-01-05 13:55:00
8:35 AM,32.0,26.6,80,30.14,-9999.0,South,10.4,-,N/A,,Partly Cloudy,190,2013-01-05 14:35:00
8:55 AM,32.0,28.4,87,30.15,-9999.0,South,15.0,-,N/A,,Mostly Cloudy,180,2013-01-05 14:55:00
9:15 AM,32.0,28.4,87,30.16,-9999.0,South,16.1,23.0,N/A,,Overcast,180,2013-01-05 15:15:00
9:35 AM,33.8,30.2,87,30.16,-9999.0,South,15.0,-,N/A,,Unknown,190,2013-01-05 15:35:00
9:55 AM,35.6,30.2,81,30.15,-9999.0,South,15.0,20.7,N/A,,Mostly Cloudy,180,2013-01-05 15:55:00
10:15 AM,35.6,32.0,87,30.14,-9999.0,South,16.1,19.6,N/A,,Mostly Cloudy,180,2013-01-05 16:15:00
10:35 AM,35.6,32.0,87,30.14,-9999.0,South,13.8,-,N/A,,Overcast,180,2013-01-05 16:35:00
10:55 AM,37.4,32.0,81,30.12,-9999.0,South,16.1,-,N/A,,Mostly Cloudy,190,2013-01-05 16:55:00
11:15 AM,37.4,32.0,81,30.12,10.0,South,16.1,23.0,N/A,,Mostly Cloudy,180,2013-01-05 17:15:00
11:35 AM,37.4,32.0,81,30.10,10.0,South,15.0,21.9,N/A,,Overcast,190,2013-01-05 17:35:00
11:55 AM,37.4,32.0,81,30.08,10.0,SSW,20.7,24.2,N/A,Snow,Light Snow,200,2013-01-05 17:55:00
12:15 PM,35.6,33.8,93,30.07,-9999.0,South,12.7,-,N/A,Rain,Light Rain,190,2013-01-05 18:15:00
12:35 PM,35.6,33.8,93,30.06,-9999.0,SSW,16.1,-,N/A,,Overcast,200,2013-01-05 18:35:00
12:55 PM,35.6,33.8,93,30.05,-9999.0,South,13.8,21.9,N/A,,Overcast,190,2013-01-05 18:55:00
1:35 PM,35.6,35.6,100,30.02,-9999.0,South,18.4,-,N/A,,Overcast,190,2013-01-05 19:35:00
1:55 PM,35.6,33.8,93,30.01,-9999.0,South,18.4,26.5,N/A,,Overcast,190,2013-01-05 19:55:00
2:15 PM,35.6,33.8,93,30.01,-9999.0,SSW,17.3,-,N/A,,Overcast,200,2013-01-05 20:15:00
2:55 PM,35.6,33.8,93,30.01,-9999.0,South,16.1,-,N/A,,Unknown,190,2013-01-05 20:55:00
3:15 PM,35.6,32.0,87,30.00,-9999.0,South,13.8,19.6,N/A,,Overcast,190,2013-01-05 21:15:00
3:35 PM,35.6,32.0,87,30.00,-9999.0,SSW,13.8,-,N/A,,Overcast,200,2013-01-05 21:35:00
4:15 PM,35.6,32.0,87,30.01,-9999.0,SSW,9.2,-,N/A,,Unknown,210,2013-01-05 22:15:00
4:55 PM,35.6,32.0,87,30.00,-9999.0,South,12.7,-,N/A,,Unknown,190,2013-01-05 22:55:00
5:15 PM,35.6,32.0,87,30.00,-9999.0,SSW,12.7,-,N/A,,Mostly Cloudy,200,2013-01-05 23:15:00
5:35 PM,35.6,32.0,87,30.00,-9999.0,South,12.7,-,N/A,,Mostly Cloudy,190,2013-01-05 23:35:00
6:15 PM,35.6,32.0,87,30.01,-9999.0,SSW,10.4,-,N/A,,Mostly Cloudy,210,2013-01-06 00:15:00
7:15 PM,35.6,32.0,87,30.03,-9999.0,SW,10.4,-,N/A,,Mostly Cloudy,220,2013-01-06 01:15:00
7:55 PM,35.6,32.0,87,30.04,-9999.0,West,19.6,-,N/A,,Overcast,270,2013-01-06 01:55:00
8:15 PM,33.8,28.4,81,30.04,-9999.0,West,15.0,-,N/A,,Scattered Clouds,260,2013-01-06 02:15:00
8:35 PM,32.0,26.6,80,30.05,10.0,West,12.7,20.7,N/A,,Clear,270,2013-01-06 02:35:00
8:55 PM,32.0,24.8,75,30.06,10.0,West,17.3,-,N/A,,Clear,280,2013-01-06 02:55:00
9:15 PM,30.2,24.8,80,30.07,10.0,WNW,15.0,-,N/A,,Clear,300,2013-01-06 03:15:00
9:35 PM,28.4,23.0,80,30.07,10.0,WNW,11.5,-,N/A,,Clear,300,2013-01-06 03:35:00
9:55 PM,28.4,23.0,80,30.06,10.0,West,9.2,-,N/A,,Scattered Clouds,280,2013-01-06 03:55:00
10:15 PM,28.4,23.0,80,30.06,10.0,West,6.9,-,N/A,,Overcast,280,2013-01-06 04:15:00
10:35 PM,28.4,23.0,80,30.06,10.0,West,8.1,-,N/A,,Overcast,270,2013-01-06 04:35:00
10:55 PM,28.4,23.0,80,30.07,-9999.0,West,9.2,-,N/A,,Overcast,260,2013-01-06 04:55:00
11:15 PM,28.4,23.0,80,30.07,-9999.0,West,9.2,-,N/A,,Overcast,270,2013-01-06 05:15:00
11:35 PM,28.4,23.0,80,30.07,10.0,West,12.7,-,N/A,,Overcast,270,2013-01-06 05:35:00
11:55 PM,28.4,24.8,86,30.07,10.0,West,16.1,-,N/A,,Overcast,280,2013-01-06 05:55:00